Regional Weather Roundup
Issued by NWS

Home | Current Version | Previous Version | Graphics & Text | Print | Product List | Glossary Off
Versions: 1 2 3 4 5 6 7 8 9 10 11 12 13 14 15 16 17 18 19 20 21 22 23 24 25 26 27 28 29 30 31 32 33 34 35 36 37 38 39 40 41 42 43 44 45 46 47 48 49 50

000
ASUS43 KDTX 181410
RWRMI
MICHIGAN HOURLY REGIONAL WEATHER ROUNDUP
NATIONAL WEATHER SERVICE DETROIT/PONTIAC MI
1000 AM EDT FRI APR 18 2014

NOTE: "FAIR" INDICATES FEW OR NO CLOUDS BELOW 12,000 FEET WITH NO
SIGNIFICANT WEATHER AND/OR OBSTRUCTION TO VISIBILITY.

MIZ047>049-052>055-059>063-066>070-074>076-081>083-181500-
SOUTHEAST LOWER MICHIGAN

CITY           SKY/WX    TMP DP  RH WIND       PRES   REMARKS
ADRIAN         CLOUDY    54  42  64 SE5       30.27F
ALMA           SUNNY     46  34  62 NE7       30.30S
ANN ARBOR      CLOUDY    54  43  66 CALM      30.27F
BAD AXE        PTSUNNY   41  31  67 N7        30.30S
CARO           CLOUDY    46  38  74 NE6       30.30R
DETROIT CITY   CLOUDY    52  41  66 E7        30.28F
DETROIT        CLOUDY    53  41  63 CALM      30.28F
FLINT          PTSUNNY   50  40  68 NE9       30.29S
GROSSE ILE     CLOUDY    54  43  66 E5        30.27S
HILLSDALE      CLOUDY    52  44  73 W3        30.26S
HOWELL         CLOUDY    48  46  92 W3        30.27S FOG

CITY           SKY/WX    TMP DP  RH WIND       PRES   REMARKS
JACKSON        CLOUDY    49  46  90 NW6       30.27S FOG
LAMBERTVILLE   CLOUDY    55  41  58 CALM      30.27F
LANSING        MOSUNNY   49  40  71 NE5       30.29S
LAPEER         CLOUDY    44  42  92 E3        30.28S FOG
MASON          MOSUNNY   49  43  82 N6        30.27F HAZE
MONROE         CLOUDY    54  41  62 CALM      30.26F
MT. CLEMENS    LGT RAIN  45  44  94 E6        30.27F FOG
PONTIAC        CLOUDY    48  45  89 CALM      30.26F FOG
PORT HOPE        N/A     41  32  70 CALM      30.29S
PORT HURON     LGT RAIN  43  41  93 NE8       30.29S
TRI CITIES     MOSUNNY   47  33  58 NE9       30.31R
TROY           DRIZZLE   48  44  87 E3        30.28F
SAGINAW HB     CLOUDY    45  34  65 NE8       30.30S
YPSILANTI      CLOUDY    56  43  61 CALM      30.27F
$$
MIZ043>046-050>051-056>058-064>065-071>073-077>080-181500-
SOUTHWEST LOWER MICHIGAN

CITY           SKY/WX    TMP DP  RH WIND       PRES   REMARKS
BATTLE CREEK   MOSUNNY   51  42  71 CALM      30.28F
BENTON HARBOR  SUNNY     46  38  73 NW6       30.30R
BIG RAPIDS     CLOUDY    42  35  76 N6        30.29S
COLDWATER      PTSUNNY   51  45  79 NW5       30.27S
FREMONT        CLOUDY    42  35  77 N8        30.30R
HOLLAND        SUNNY     50  39  66 CALM      30.29S
GRAND RAPIDS   MOSUNNY   51  39  63 CALM      30.28F
IONIA          FAIR      49  38  67 NE7       30.27F
KALAMAZOO      SUNNY     52  42  69 CALM      30.28F FOG
LUDINGTON      PTSUNNY   39  32  75 N10       30.34S WCI  32
MARSHALL       MOSUNNY   48  44  85 CALM      30.26F FOG
MOUNT PLEASANT MOSUNNY   45  34  64 N6        30.29S
MUSKEGON       PTSUNNY   49  36  61 N9        30.30S
SOUTH HAVEN    SUNNY     49  38  64 W3        30.29S
$$
MIZ016>042-181500-
NORTHERN LOWER MICHIGAN

CITY           SKY/WX    TMP DP  RH WIND       PRES   REMARKS
ALPENA         CLOUDY    38  30  73 NW9       30.30S WCI  31
BEAVER ISLAND  CLOUDY    33  28  81 NW3       30.33S
BELLAIRE       CLOUDY    35  31  87 NW5       30.33S WCI  31
CADILLAC       CLOUDY    36  32  85 N7        30.29S WCI  30
CHARLEVOIX     CLOUDY    35  30  83 NW3       30.37S
FRANKFORT      CLOUDY    36  29  78 N5        30.35S WCI  32
GAYLORD        CLOUDY    33  29  85 VRB3      30.29S
GRAYLING       CLOUDY    36  32  86 NW7       30.30R WCI  30
HARBOR SPRINGS CLOUDY    36  29  77 CALM      30.32R
HOUGHTON LAKE  MOSUNNY   41  32  70 VRB6      30.29S
MANISTEE       CLOUDY    37  28  70 N6        30.35S WCI  33
OSCODA         MOSUNNY   44  32  63 N6        30.29S
PELLSTON       CLOUDY    36  27  69 NW12      30.33R WCI  27
ROGERS CITY    CLOUDY    36  31  81 NW10      30.32S WCI  28
TRAVERSE CITY  CLOUDY    36  30  79 N9        30.33R WCI  29
$$
MIZ007>008-015-181500-
EASTERN UPPER MICHIGAN

CITY           SKY/WX    TMP DP  RH WIND       PRES   REMARKS
KINROSS        CLOUDY    34  28  80 NW9       30.30R WCI  26
MACKINAC ISLAN CLOUDY    33  28  83 NW10      30.31R WCI  25
NEWBERRY       CLOUDY    33  27  78 NW7       30.29S WCI  27
S. S. MARIE    CLOUDY    33  27  78 NW10      30.29R WCI  25
MUNISING         N/A     34  27  75 NW10      30.33R WCI  26
$$
MIZ004>006-011>014-085-181500-
CENTRAL UPPER MICHIGAN

CITY           SKY/WX    TMP DP  RH WIND       PRES   REMARKS
MANISTIQUE     PTSUNNY   35  27  73 W10       30.31S WCI  28
ESCANABA       CLOUDY    36  21  55 NW6       30.34S WCI  31
MENOMINEE      CLOUDY    36  25  64 NW7       30.36S WCI  30
SAWYER-GWINN   MOSUNNY   34  23  64 N9        30.31R WCI  26
$$
MIZ001>003-009>011-084-181500-
WESTERN UPPER MICHIGAN

CITY           SKY/WX    TMP DP  RH WIND       PRES   REMARKS
IRON MOUNTAIN  CLOUDY    33  23  66 N9        30.33R WCI  25
HOUGHTON       CLOUDY    30  25  81 NW12      30.34R WCI  20
COPPER HARBOR    N/A     32  28  85 N12       30.34R WCI  23
IRONWOOD       CLOUDY    28  23  80 W5        30.34R WCI  23
$$

ABBREVIATIONS USED IN REMARKS
   TC - TEMPERATURE IN CELSIUS
  WCI - WIND CHILL INDEX
   HX - HEAT INDEX
  VSB - VISIBILITY




USA.gov is the U.S. government's official web portal to all federal, state and local government web resources and services.